sat.trackr.live / text

‹ back to catalog

KUIPER-00230

NORAD 68579 · 2026-072G

PAYLOAD ACTIVE UNKNOWN

§ Identity

Operator
Country
US
Launch date
2026-04-04
Launch site
AFETR
Launch vehicle
Mass (kg)
RCS (m²)

External: N2YO · Heavens-Above · Gunter

§ Orbital elements

Epoch: 2026-05-24T19:00:02.064384Z

Period
93.66 min
Inclination
51.8773°
Eccentricity
0.0001836
Mean motion
15.37452493 rev/d
Perigee alt
452.4 km
Apogee alt
454.9 km
Semi-major
6,831.8 km
B*
3.6367e-4
RAAN
289.8833°
Arg perigee
299.3582°
Mean anomaly
60.7221°
Rev number
778

§ Raw data

KUIPER-002301 68579U 26072G   26144.79169056  .00013198  00000+0  36367-3 0  99912 68579  51.8773 289.8833 0001836 299.3582  60.7221 15.37452493  7788

JSON: /api/v1/satellites/68579 · /tle

For live sub-satellite position, see the globe view (requires WebGL).

§ Visibility from observer

Set your observer location to see the next 7 days of passes ≥ 10°. The values pass through the URL so the page stays shareable.

No JS? Fill the form by hand. The geolocation button needs JavaScript.